This is the latest recevied weather packets stored in our database for station/object KE8GJZ-2. If no packets are shown the sender has not sent any weather packets the latest 10 day(s).
| Time | Temp. | Humidity | Pressure | Rain* | Wind** | Luminosity | Snow |
|---|---|---|---|---|---|---|---|
| 1778074469 | 8.89° C | 56% | 1013.4 hPa | 0 mm | - | 269 W/m² | - |
| 1778074166 | 8.89° C | 58% | 1013.3 hPa | 0 mm | - | 238 W/m² | - |
| 1778073863 | 8.33° C | 57% | 1013.5 hPa | 0 mm | - | 227 W/m² | - |
| 1778073561 | 8.33° C | 58% | 1013.2 hPa | 0 mm | - | 248 W/m² | - |
| 1778073257 | 8.33° C | 58% | 1013.3 hPa | 0 mm | - | 373 W/m² | - |
| 1778072954 | 8.33° C | 60% | 1013.6 hPa | 0 mm | - | 370 W/m² | - |
| 1778072650 | 7.78° C | 62% | 1013.3 hPa | 0 mm | - | 324 W/m² | - |
| 1778072349 | 7.78° C | 65% | 1013.4 hPa | 0 mm | - | 248 W/m² | - |
| 1778072047 | 7.78° C | 63% | 1013.2 hPa | 0 mm | - | 225 W/m² | - |
| 1778071745 | 7.78° C | 66% | 1013.4 hPa | 0 mm | - | 199 W/m² | - |
| 1778071441 | 7.78° C | 65% | 1013.2 hPa | 0 mm | - | 220 W/m² | - |
| 1778071139 | 7.78° C | 66% | 1013.6 hPa | 0 mm | - | 210 W/m² | - |
| 1778070837 | 7.22° C | 72% | 1013.6 hPa | 0 mm | - | 253 W/m² | - |
| 1778070534 | 7.22° C | 69% | 1013.6 hPa | 0 mm | - | 212 W/m² | - |
| 1778070231 | 7.22° C | 69% | 1013.7 hPa | 0 mm | - | 154 W/m² | - |
| 1778069929 | 7.22° C | 70% | 1013.5 hPa | 0 mm | - | 173 W/m² | - |
| 1778069626 | 7.22° C | 71% | 1013.4 hPa | 0 mm | - | 174 W/m² | - |
| 1778069323 | 6.67° C | 73% | 1013.4 hPa | 0 mm | - | 175 W/m² | - |
| 1778069021 | 6.67° C | 74% | 1013.4 hPa | 0 mm | - | 142 W/m² | - |
| 1778068718 | 6.67° C | 72% | 1013.3 hPa | 0 mm | - | 131 W/m² | - |
| 1778068416 | 6.67° C | 74% | 1013.2 hPa | 0 mm | - | 103 W/m² | - |
| 1778068114 | 6.67° C | 76% | 1013 hPa | 0 mm | - | 75 W/m² | - |
| 1778067811 | 6.67° C | 76% | 1013 hPa | 0 mm | - | 83 W/m² | - |
| 1778067510 | 6.67° C | 76% | 1012.8 hPa | 0 mm | - | 78 W/m² | - |
| 1778067207 | 6.67° C | 81% | 1012.8 hPa | 0 mm | - | 60 W/m² | - |
* Rain latest hour (hover to see other rain measurements)
** Current wind speed in m/s (hover to see current wind gust speed)